CW6726 Weather Reports


time (UTC)temp
C
wind
direction
speed
KPH
gust
KPH
rain 1hr
cm
rain 24hr
cm
rain mn
cm
humidity
%
barometer
mb
20260506032105 10 5 4.8 9.7 0.00 0.03 0.00 82 1009.7
20260506031105 10 24 8.0 14.5 0.00 0.03 0.00 81 1009.7
20260506024605 10 14 1.6 11.3 0.00 0.03 0.00 81 1009.7
20260506024105 10 29 8.0 12.9 0.00 0.03 0.00 81 1009.7
20260506023105 10 26 8.0 11.3 0.00 0.03 0.00 80 1009.8
20260506022105 10 18 4.8 14.5 0.00 0.03 0.00 80 1009.8
20260506020605 10 16 4.8 8.0 0.00 0.03 0.00 79 1009.8
20260506015605 10 15 6.4 14.5 0.00 0.03 0.00 78 1009.8
20260506014605 10 12 6.4 11.3 0.00 0.03 0.00 78 1009.9
20260506014105 10 11 4.8 11.3 0.00 0.03 0.00 78 1009.8
20260506013605 10 10 4.8 11.3 0.00 0.03 0.00 78 1009.8
20260506012605 10 15 8.0 12.9 0.00 0.03 0.00 77 1009.8
20260506011605 11 8 4.8 19.3 0.00 0.03 0.00 77 1009.8
20260506010605 11 40 3.2 19.3 0.00 0.03 0.00 78 1009.8
20260506005105 11 34 8.0 14.5 0.00 0.03 0.00 78 1009.9
20260506004604 11 21 4.8 9.7 0.00 0.03 0.00 78 1009.9
20260506004105 11 24 8.0 19.3 0.00 0.03 0.00 78 1009.8
20260506003605 11 41 3.2 9.7 0.00 0.03 0.00 78 1009.8
20260506002106 11 53 8.0 14.5 0.00 0.03 0.00 77 1009.8
20260506000604 11 27 4.8 11.3 0.00 0.03 0.00 76 1009.8
20260505234604 11 16 8.0 12.9 0.00 0.03 0.00 76 1009.8
20260505234105 12 18 3.2 11.3 0.00 0.03 0.00 76 1009.8
20260505225105 12 38 8.0 14.5 0.00 0.03 0.03 74 1009.5
20260505223605 12 17 6.4 11.3 0.00 0.03 0.03 74 1009.6
20260505223104 12 11 8.0 14.5 0.00 0.03 0.03 74 1009.6
20260505222605 12 30 9.7 19.3 0.00 0.03 0.03 75 1009.6
20260505221605 12 10 4.8 11.3 0.00 0.03 0.03 74 1009.6
20260505221105 12 10 4.8 11.3 0.00 0.03 0.03 74 1009.6
20260505220605 12 10 3.2 9.7 0.00 0.03 0.03 73 1009.6
20260505220105 12 9 3.2 8.0 0.00 0.03 0.03 73 1009.6
20260505214605 12 9 8.0 11.3 0.00 0.03 0.03 72 1009.5
20260505213105 12 9 4.8 14.5 0.00 0.03 0.03 71 1009.5
20260505212105 12 355 3.2 11.3 0.00 0.05 0.03 71 1009.5
20260505211604 12 355 4.8 9.7 0.00 0.05 0.03 71 1009.5
20260505211104 12 347 6.4 11.3 0.00 0.05 0.03 71 1009.5
20260505210106 13 0 4.8 9.7 0.00 0.05 0.03 72 1009.5
20260505205604 13 0 3.2 9.7 0.00 0.05 0.03 72 1009.5
20260505204104 13 0 3.2 9.7 0.00 0.05 0.03 71 1009.4
20260505202605 13 0 4.8 9.7 0.00 0.05 0.03 71 1009.4
20260505201604 13 0 4.8 8.0 0.00 0.08 0.03 71 1009.4
20260505200105 13 0 1.6 4.8 0.00 0.08 0.03 71 1009.3
20260505194604 13 5 4.8 9.7 0.00 0.08 0.03 70 1009.1
20260505193105 13 9 3.2 9.7 0.00 0.08 0.03 70 1009.0
20260505191605 13 9 4.8 9.7 0.00 0.08 0.03 70 1008.9
20260505190605 13 10 3.2 12.9 0.00 0.08 0.03 69 1008.9
20260505185104 14 11 3.2 12.9 0.00 0.10 0.03 69 1008.9
20260505184605 14 7 8.0 19.3 0.00 0.10 0.03 69 1008.9
20260505183605 14 355 3.2 9.7 0.00 0.13 0.03 69 1008.8
20260505183105 14 355 4.8 12.9 0.00 0.13 0.03 69 1008.8
20260505182604 14 355 8.0 9.7 0.00 0.13 0.03 68 1008.8
20260505182106 14 355 4.8 12.9 0.00 0.13 0.03 68 1008.7
20260505175105 15 345 4.8 14.5 0.00 0.20 0.03 68 1008.7
20260505174104 15 318 6.4 11.3 0.00 0.25 0.03 70 1008.7
20260505173604 15 11 3.2 8.0 0.00 0.28 0.03 70 1008.7
20260505173105 15 11 4.8 8.0 0.00 0.30 0.03 70 1008.7
20260505172605 15 11 4.8 9.7 0.00 0.30 0.03 70 1008.7
20260505172104 15 11 1.6 4.8 0.00 0.33 0.03 70 1008.8
20260505171605 15 11 4.8 8.0 0.00 0.33 0.03 70 1008.8
20260505170605 15 12 4.8 8.0 0.00 0.33 0.03 69 1008.9
20260505163604 15 22 3.2 12.9 0.00 0.38 0.03 68 1008.9
20260505163105 15 15 6.4 11.3 0.00 0.38 0.03 68 1008.9
20260505162105 15 42 8.0 14.5 0.00 0.38 0.03 67 1008.9
20260505161605 15 26 8.0 12.9 0.00 0.38 0.03 67 1008.9
20260505160605 15 13 6.4 16.1 0.00 0.38 0.03 65 1008.9
20260505153105 15 17 6.4 9.7 0.00 0.38 0.03 68 1009.0
20260505152604 15 19 6.4 11.3 0.00 0.38 0.03 67 1009.0
20260505152105 15 26 6.4 12.9 0.00 0.38 0.03 67 1009.0
20260505151605 15 36 8.0 14.5 0.00 0.38 0.03 68 1009.0
20260505151105 15 22 9.7 14.5 0.00 0.38 0.03 66 1009.0
20260505150605 15 5 6.4 11.3 0.00 0.38 0.03 66 1009.1
20260505140605 16 7 9.7 16.1 0.00 0.38 0.03 66 1009.3
20260505124105 15 37 9.7 14.5 0.00 0.38 0.03 68 1009.5
20260505123605 15 27 9.7 14.5 0.00 0.38 0.03 68 1009.5
20260505122105 15 19 9.7 19.3 0.00 0.38 0.03 69 1009.6
20260505120105 15 17 9.7 19.3 0.00 0.38 0.03 69 1009.5
20260505114605 15 29 14.5 19.3 0.00 0.38 0.03 67 1009.6
20260505114104 15 33 9.7 25.7 0.00 0.38 0.03 67 1009.7
20260505112105 15 357 9.7 19.3 0.00 0.38 0.03 69 1009.8
20260505111605 15 7 14.5 25.7 0.00 0.38 0.03 67 1009.9
20260505111105 15 358 11.3 22.5 0.00 0.38 0.03 67 1009.8
20260505100107 13 31 8.0 19.3 0.00 0.36 0.00 76 1010.1
20260505095105 13 13 8.0 19.3 0.00 0.36 0.00 76 1010.1
20260505094604 13 29 12.9 20.9 0.00 0.36 0.00 76 1010.2
20260505093605 13 34 6.4 16.1 0.00 0.36 0.00 78 1010.2
20260505091605 13 26 8.0 20.9 0.00 0.36 0.00 82 1010.4
20260505091105 12 25 8.0 16.1 0.00 0.36 0.00 81 1010.4
20260505090605 12 35 9.7 19.3 0.00 0.36 0.00 82 1010.4
20260505090105 12 2 11.3 20.9 0.00 0.36 0.00 83 1010.4
20260505085604 12 353 6.4 19.3 0.00 0.36 0.00 83 1010.4
20260505085105 12 17 9.7 16.1 0.00 0.36 0.00 84 1010.4
20260505084105 12 22 11.3 20.9 0.00 0.36 0.00 84 1010.4
20260505083605 12 17 8.0 16.1 0.00 0.36 0.00 85 1010.4
20260505082605 12 17 9.7 19.3 0.00 0.36 0.00 86 1010.4
20260505082105 11 26 8.0 14.5 0.00 0.36 0.00 86 1010.4
20260505081104 11 5 11.3 19.3 0.00 0.36 0.00 87 1010.4
20260505080605 11 5 8.0 16.1 0.00 0.36 0.00 88 1010.4
20260505074605 11 33 8.0 16.1 0.00 0.36 0.00 89 1010.3
20260505074105 11 14 11.3 19.3 0.00 0.36 0.00 90 1010.3
20260505073605 11 31 8.0 12.9 0.00 0.36 0.00 90 1010.3
20260505073104 10 30 8.0 14.5 0.00 0.36 0.00 90 1010.3
20260505072605 10 13 8.0 19.3 0.00 0.36 0.00 91 1010.4
20260505070605 10 28 8.0 14.5 0.00 0.36 0.00 91 1010.5
20260505065605 10 18 8.0 14.5 0.00 0.36 0.00 92 1010.5
20260505065104 10 15 8.0 16.1 0.00 0.36 0.00 92 1010.5
20260505064605 10 16 8.0 14.5 0.00 0.36 0.00 92 1010.5
20260505064104 10 5 6.4 9.7 0.00 0.36 0.00 92 1010.6
20260505062604 9 5 3.2 8.0 0.00 0.36 0.00 92 1010.5
20260505062105 9 5 4.8 11.3 0.00 0.36 0.00 92 1010.5
20260505061105 9 5 4.8 11.3 0.00 0.36 0.00 92 1010.5
20260505060605 9 5 4.8 11.3 0.00 0.36 0.00 92 1010.5
20260505060105 9 5 8.0 11.3 0.00 0.36 0.00 92 1010.5
20260505055105 9 5 8.0 11.3 0.00 0.36 0.00 92 1010.5
20260505050105 9 23 4.8 9.7 0.00 0.36 0.00 92 1010.4
20260505041105 10 30 4.8 4.8 0.00 0.36 0.00 91 1010.7
20260505034604 10 30 3.2 4.8 0.00 0.36 0.00 91 1010.7
20260505034105 10 30 3.2 4.8 0.00 0.36 0.00 91 1010.6
20260505033605 10 30 0.0 3.2 0.00 0.36 0.00 91 1010.7
20260505033105 10 30 0.0 4.8 0.00 0.36 0.00 91 1010.7
20260505032605 10 30 4.8 8.0 0.00 0.36 0.00 91 1010.8